C/2017 M5 ( TOTAS )

Japanese version
Home page
Updated on November 23, 2017

---------------------------------------------------------------------

* Profile

Discovery Date June 23, 2017
Magnitude 18.6 mag
Discoverer Teide Observatory Tenerife Asteroid Survey (TOTAS)

* Pictures

* Orbital Elements

Epoch 2018 June 11.0 TT = JDT 2458280.5
T 2018 June 2.68635 TT                                  MPCW
q   5.9902541            (2000.0)            P               Q
z  -0.0005695      Peri.   92.62594     +0.60529557     +0.77935968
 +/-0.0000508      Node   216.26662     -0.79464130     +0.57974603
e   1.0034112      Incl.   15.88530     -0.04650245     +0.23768261
From 112 observations 2017 June 23-Oct. 14, mean residual 0".5.

* Magnitudes Graph

        m1 = 6.5 + 5 log d + 10.0 log r

---------------------------------------------------------------------

The orbital elements are published on M.P.E.C. 2017-V13.
The magnitudes graphs are made with Comet for Windows.

---------------------------------------------------------------------

Copyright(C) Seiichi Yoshida (comet@aerith.net). All rights reserved.